Regional Weather Roundup
Issued by NWS

Home | Current Version | Previous Version | Text Only | Print | Product List | Glossary On
Versions: 1 2 3 4 5 6 7 8 9 10 11 12 13 14 15 16 17 18 19 20 21 22 23 24 25 26 27 28 29 30 31 32 33 34 35 36 37 38 39 40 41 42 43 44 45 46 47 48 49 50
000
ASUS43 KFSD 280302
RWRSD

WEATHER ROUNDUP FOR SOUTH DAKOTA
NATIONAL WEATHER SERVICE SIOUX FALLS SD
900 PM CST FRI FEB 27 2015

NOTE: "FAIR" INDICATES FEW OR NO CLOUDS BELOW 12,000 FEET WITH NO
SIGNIFICANT WEATHER AND/OR OBSTRUCTIONS TO VISIBILITY.


SDZ001>005-009-010-012>017-280400-
NORTHWEST AND NORTH CENTRAL SOUTH DAKOTA

CITY           SKY/WX    TMP DP  RH WIND       PRES   REMARKS
BUFFALO          N/A     15   8  73 SE7       29.92F WCI   5
FAITH            N/A     17   3  54 S9        30.06S WCI   6
MOBRIDGE       PTCLDY    10   1  67 SE10      30.17  WCI  -4
$$

SDZ012>016-024>037-041>051-057-063-072>074-280400-
SOUTHWEST AND SOUTH CENTRAL SOUTH DAKOTA

CITY           SKY/WX    TMP DP  RH WIND       PRES   REMARKS
RAPID CTY ARPT PTCLDY    18   9  68 S13       30.01F WCI   5
PIERRE         CLEAR     16  -3  43 SE13      30.20F WCI   2
CUSTER         CLOUDY    11   6  81 S7        29.87S WCI   0
ELLSWORTH AFB  CLEAR     17   9  69 S12       29.99F WCI   5
PHILIP         CLEAR     18   5  57 S9        30.13S WCI   7
PINE RIDGE     PTCLDY    19   6  57 S14G23    30.05F WCI   6
WINNER         FAIR      18  -4  37 SE12      30.23F WCI   5
$$

SDZ004>011-016>023-039-040-280400-
NORTHEAST SOUTH DAKOTA

CITY           SKY/WX    TMP DP  RH WIND       PRES   REMARKS
ABERDEEN       PTCLDY     7  -1  70 SE14      30.33F WCI -10
WATERTOWN      CLEAR      4  -2  76 S10       30.35S WCI -11
SISSETON         N/A      3  -4  72 S10       30.39S WCI -12
$$

SDZ017-020-022-023-036>040-048>070-280400-
SOUTHEAST SOUTH DAKOTA

CITY           SKY/WX    TMP DP  RH WIND       PRES   REMARKS
SIOUX FALLS    CLEAR      8   0  69 S9        30.43R WCI  -5
HURON          CLEAR     10   2  69 SE13      30.35F WCI  -5
MITCHELL       CLEAR     13   4  67 SE12      30.39S WCI  -1
YANKTON        CLEAR     12   3  67 SE12      30.44S WCI  -2
$$

ABBREVIATIONS USED IN REMARKS
   TC - TEMPERATURE IN CELSIUS
  WCI - WIND CHILL INDEX
   HX - HEAT INDEX
  VSB - VISIBILITY



USA.gov is the U.S. government's official web portal to all federal, state and local government web resources and services.